Theta_e
342 326 322 324 325 325 326 327 326 326 326 328 331 332 327 322 322 326 327 327 328 329 331 333 335 336 335 336 337 336 343 345 344 347 347 346 343 343 346 342 344 349 347
340 334 324 325 326 326 327 327 328 330 333 337 338 336 333 329 324 328 328 328 328 329 330 331 335 335 335 335 337 336 343 344 343 344 344 345 342 344 346 342 348 346 347
337 337 331 327 327 327 327 329 330 333 337 340 339 337 335 333 331 330 330 330 329 329 330 330 331 336 336 335 336 337 341 344 342 343 344 344 343 343 346 344 348 343 345
331 336 338 331 326 324 327 331 335 338 339 338 339 338 337 334 334 333 332 332 331 331 330 329 330 331 334 336 336 338 340 343 342 342 342 344 346 344 344 346 344 336 340
330 331 333 334 332 328 329 335 339 338 337 337 338 336 335 335 335 334 334 334 333 332 331 330 330 331 335 335 335 338 339 342 340 342 343 345 344 345 343 343 344 342 344
327 329 332 329 328 326 329 340 340 338 339 336 336 335 333 333 332 332 333 334 333 333 332 329 330 334 335 336 335 336 338 340 340 341 343 344 345 345 342 341 337 340 344
325 327 330 328 326 325 325 339 339 339 338 337 335 335 334 334 334 333 333 332 332 332 332 330 330 333 335 335 335 335 337 339 340 342 343 343 342 344 340 338 339 341 342
326 325 328 330 326 324 322 320 327 331 333 332 330 331 332 331 331 330 330 330 330 331 332 331 328 329 332 335 333 333 335 339 341 341 343 342 344 343 340 339 340 341 339
325 326 325 326 327 324 322 322 323 323 323 322 322 324 327 328 328 328 329 330 330 331 332 331 328 328 329 333 331 331 332 338 335 341 343 343 342 341 340 338 337 335 333
324 323 324 323 322 322 327 328 327 324 326 327 325 326 327 326 326 327 329 330 330 332 332 331 330 328 328 330 331 330 332 336 333 340 341 343 342 342 340 336 332 330 335
323 323 322 322 322 324 325 328 326 327 329 327 327 326 325 325 326 327 328 330 330 331 331 330 329 330 328 330 332 329 331 335 337 342 342 343 343 342 337 337 335 333 333
323 323 323 321 324 327 328 326 327 327 328 327 326 325 325 325 325 326 327 328 330 330 330 330 330 330 328 329 330 328 330 333 336 339 339 342 343 341 339 337 335 336 338
324 324 322 323 325 328 329 328 327 327 327 327 326 324 323 324 324 326 326 327 327 329 328 329 329 329 328 325 328 332 330 331 333 336 338 341 342 341 338 336 334 334 333
324 323 325 327 329 330 331 330 327 327 326 324 327 326 325 326 327 327 326 326 326 327 327 327 328 328 326 324 328 332 332 330 335 336 339 340 340 340 337 337 334 334 333
325 323 327 329 329 332 331 329 329 328 327 327 327 327 326 324 326 326 326 326 325 326 326 326 327 327 326 322 329 331 333 330 335 336 341 340 338 339 337 336 335 334 335
325 324 328 329 330 330 330 329 330 329 329 327 326 327 326 324 325 326 325 325 325 325 325 326 328 328 328 325 330 333 333 334 334 336 340 339 339 336 336 336 330 331 334
324 326 328 329 328 329 330 330 329 329 328 328 327 327 323 324 325 327 325 324 324 324 324 324 327 328 329 329 331 333 333 335 334 338 339 339 338 335 334 332 333 335 333
324 327 328 328 327 329 330 330 330 329 330 329 329 325 324 320 326 327 325 325 323 324 324 325 326 328 330 327 332 332 331 334 331 338 339 338 336 333 334 332 334 334 333
325 327 329 329 329 330 330 330 330 331 332 330 329 324 321 320 327 327 325 326 325 324 324 325 327 329 330 330 332 332 334 334 333 339 339 336 334 333 332 331 331 332 331
325 327 329 329 330 331 329 330 331 333 334 331 330 325 322 322 328 328 326 325 327 324 325 326 328 329 328 330 332 332 333 333 334 337 338 336 334 333 330 333 332 334 331
326 328 330 330 330 330 328 330 331 333 330 330 329 329 327 327 326 327 327 326 326 326 325 327 327 328 331 330 332 332 334 337 334 336 337 336 333 333 333 329 330 329 331
326 327 330 330 330 329 330 331 332 333 333 332 330 329 329 328 327 328 327 326 326 327 327 328 327 329 330 331 332 335 334 336 337 337 336 334 332 330 331 333 332 330 330
327 327 329 329 329 330 332 331 331 332 332 334 331 330 328 328 328 328 328 327 326 328 329 328 328 329 332 331 333 334 335 336 335 335 334 332 331 329 328 327 327 327 329
326 326 328 329 329 331 330 330 331 331 333 332 331 331 329 329 328 328 328 327 327 328 326 327 329 327 330 331 332 333 333 334 334 336 334 333 333 330 329 326 329 329 330
326 327 327 328 328 331 331 331 332 333 332 332 329 331 328 328 329 328 328 328 326 326 327 329 328 329 330 331 334 335 334 332 332 333 334 333 332 330 329 329 328 328 330
324 326 328 329 327 331 331 330 332 332 332 333 329 329 329 329 327 328 328 327 327 327 329 330 328 329 331 333 334 333 333 333 332 331 332 332 332 332 330 329 329 330 330
Wind_Speed
20 17 12 13 13 12 11 11 9 10 10 9 8 9 9 9 10 8 7 6 6 6 7 10 10 11 12 12 11 12 12 11 13 22 14 9 10 9 15 12 13 16 16
18 16 10 12 14 13 13 12 10 10 9 10 10 11 10 11 12 11 9 8 8 7 9 11 11 11 12 12 12 13 11 12 17 17 16 16 11 14 15 13 13 17 16
14 12 11 11 13 12 12 12 10 11 10 11 12 12 12 13 13 13 13 11 10 9 10 12 12 12 13 13 13 13 12 10 15 22 21 18 15 14 12 17 14 18 14
8 6 8 8 9 8 13 13 12 12 11 12 12 12 13 15 15 15 14 13 12 11 12 13 13 13 14 14 14 12 12 10 12 18 21 19 16 17 18 17 19 21 20
3 8 10 8 8 9 13 14 14 13 13 13 13 14 14 17 17 16 16 17 16 14 13 13 14 15 15 15 15 13 12 11 12 15 17 18 19 18 21 18 22 24 24
4 5 8 8 8 10 13 14 15 15 14 15 15 15 16 17 18 18 18 18 18 18 15 14 14 14 14 16 15 15 13 12 11 14 15 20 20 20 25 24 21 23 21
3 3 4 2 6 8 10 10 12 12 13 14 14 15 15 16 16 16 17 18 20 19 19 17 15 12 12 13 14 15 12 12 10 14 16 18 23 23 26 26 24 25 22
0 1 1 1 5 7 8 9 12 15 16 16 15 15 15 17 19 19 20 21 22 22 22 19 17 15 14 12 14 14 14 12 11 13 15 18 18 30 29 28 27 26 24
3 4 5 4 6 11 7 8 9 11 12 16 17 19 17 18 19 20 20 20 20 22 22 20 19 17 15 12 13 15 15 13 12 11 14 14 22 27 30 31 30 26 23
10 7 3 7 5 5 6 5 8 8 15 13 16 13 12 13 17 18 19 20 20 20 21 21 19 17 15 13 14 14 14 12 12 11 16 16 26 29 30 28 31 31 24
5 6 8 4 3 6 8 9 6 11 9 9 11 9 10 11 11 13 15 17 16 19 19 20 18 16 14 13 13 14 15 13 13 14 16 17 25 30 30 28 29 28 25
9 2 4 2 3 5 7 9 9 11 7 9 12 11 11 11 13 13 11 9 12 15 17 18 16 15 14 13 15 16 14 14 16 14 16 16 26 26 30 33 32 27 26
5 0 2 4 4 5 8 10 11 12 6 9 12 11 10 10 11 13 12 11 10 15 18 17 16 16 16 15 16 14 17 17 17 15 14 17 24 24 27 29 29 27 25
5 1 0 2 2 5 8 10 11 9 9 15 13 12 10 11 13 11 9 11 13 14 20 18 20 18 17 21 18 20 19 18 18 16 13 18 23 24 27 28 29 29 28
1 1 1 2 4 5 8 10 11 13 13 11 12 14 10 12 13 9 9 11 13 16 18 19 20 22 19 22 19 20 22 20 17 18 16 20 22 24 35 34 30 26 25
4 3 2 3 3 5 7 12 12 13 13 14 13 13 9 12 12 10 10 11 14 14 19 18 18 19 18 21 19 17 22 11 19 17 21 23 24 30 32 31 39 28 27
5 5 4 6 7 7 10 10 11 14 13 13 12 10 10 11 13 11 10 10 14 16 16 20 19 14 13 18 18 19 20 17 16 16 23 25 35 33 33 37 35 33 27
6 6 4 4 4 6 8 10 15 12 11 11 13 12 13 12 10 12 9 9 9 15 18 20 19 15 14 18 18 17 17 15 14 18 27 29 29 32 32 33 29 30 31
9 6 5 3 6 5 9 14 15 9 7 10 12 11 11 11 9 11 10 7 6 12 20 21 19 17 18 19 15 21 15 14 15 21 29 30 30 31 32 28 27 28 29
10 7 5 4 4 5 12 15 6 6 4 7 7 10 10 9 9 10 11 9 8 11 17 18 18 18 21 19 15 13 13 14 15 25 31 31 31 30 32 25 30 28 29
10 8 8 5 4 5 10 8 7 6 6 3 4 8 9 11 9 9 10 10 11 11 15 16 20 18 16 18 16 12 11 9 15 23 30 31 32 30 35 35 34 35 29
11 10 8 6 4 4 8 6 3 4 4 2 3 3 5 3 8 8 9 12 12 9 10 14 18 12 12 18 12 10 4 6 14 26 30 33 34 35 31 32 34 32 26
13 10 9 5 3 3 6 9 7 9 7 4 4 4 3 3 6 8 9 10 10 10 10 10 11 9 11 12 14 6 3 3 7 20 28 31 32 33 32 32 33 32 26
14 12 9 6 4 4 5 9 9 9 10 4 3 7 3 3 5 6 10 11 12 11 10 12 14 9 18 13 9 11 9 11 3 7 24 29 29 31 33 30 24 25 27
14 13 9 7 4 1 1 6 9 9 10 8 3 6 7 5 4 9 11 11 9 5 11 11 13 20 21 21 10 16 20 18 16 9 10 18 26 26 27 26 26 24 25
13 14 10 7 4 3 0 4 6 8 11 8 4 7 10 6 5 9 11 11 7 7 9 9 12 18 20 19 18 21 21 11 12 12 9 16 18 23 27 25 26 26 26
Wind_Direction
138 145 148 173 189 200 207 217 229 235 238 248 251 251 261 281 300 316 315 303 285 273 269 270 271 278 276 277 282 288 281 264 227 220 200 223 208 164 201 174 142 144 141
144 156 156 181 199 209 213 225 235 246 252 248 253 254 258 271 282 293 296 294 289 275 266 262 261 269 275 274 277 284 290 268 224 224 219 215 198 192 188 165 159 144 144
120 152 165 190 207 216 227 236 244 252 259 253 253 246 248 257 270 281 288 291 283 276 262 258 259 267 267 270 271 279 287 274 226 222 222 211 211 201 180 171 156 145 150
122 137 183 187 205 233 242 245 251 256 260 263 264 264 254 253 254 264 274 276 277 270 264 257 255 258 261 267 267 272 279 280 236 224 221 212 200 195 179 176 160 154 165
160 209 200 205 224 248 245 250 257 259 258 260 263 264 264 266 265 266 268 268 268 263 258 252 250 251 257 260 262 264 271 280 241 232 219 211 208 193 179 172 157 161 159
242 125 170 198 229 251 251 252 257 259 264 267 267 268 268 267 269 270 265 264 264 256 251 242 242 250 254 257 256 261 258 274 250 229 225 212 207 196 182 173 168 158 157
261 62 144 256 258 258 260 255 259 264 264 263 267 265 266 268 269 268 265 260 259 255 244 237 239 244 255 258 259 259 249 260 250 228 228 220 210 190 179 170 166 158 157
95 196 191 249 270 276 283 272 261 263 267 270 270 272 273 272 273 272 266 260 257 251 239 231 230 239 252 263 259 250 246 253 256 235 228 214 203 189 175 167 166 155 156
184 198 209 209 275 276 261 252 255 267 284 288 288 287 279 275 275 272 266 260 254 244 234 226 226 234 245 261 256 242 241 243 244 237 221 210 216 180 168 166 155 149 159
197 212 172 261 261 282 257 249 268 301 303 299 313 300 292 282 272 270 258 253 249 240 228 223 221 232 237 245 247 238 234 237 231 219 209 196 183 171 163 165 158 160 164
190 231 239 253 296 291 283 271 287 308 292 301 303 305 298 301 284 278 272 254 242 229 221 221 219 225 226 232 238 235 227 232 230 211 200 191 175 167 175 167 169 165 164
209 208 313 277 256 295 283 279 285 293 272 283 287 295 301 287 273 276 272 262 236 219 217 211 211 220 226 225 240 235 220 220 222 208 202 197 187 177 179 175 167 170 173
63 54 3 320 270 273 284 291 284 274 274 298 297 282 288 286 274 273 259 241 237 210 204 204 207 215 221 217 228 218 215 215 211 201 198 194 182 182 170 164 163 169 175
163 55 281 299 276 280 279 289 293 288 299 300 280 281 271 272 269 270 261 252 229 214 206 202 208 215 214 215 226 211 212 218 198 188 183 178 180 174 163 162 163 168 180
149 110 298 270 273 271 273 283 286 291 285 276 273 265 245 263 274 272 270 256 233 220 212 211 206 215 217 217 217 216 212 221 195 180 175 171 173 173 165 161 162 169 170
187 218 220 253 259 265 267 272 276 283 276 273 280 272 240 272 268 262 265 260 247 229 214 209 208 212 222 209 208 212 220 212 192 173 169 172 170 161 160 157 157 165 170
198 210 224 242 236 254 269 279 285 286 274 274 271 269 253 261 263 258 261 268 241 234 211 212 217 213 211 196 208 215 230 190 182 161 167 159 160 160 160 154 158 167 159
216 203 221 257 266 264 289 290 296 281 272 271 271 271 254 254 259 257 252 261 255 214 201 208 215 209 198 197 192 211 195 185 181 168 168 160 166 166 161 161 165 158 158
204 215 221 235 258 287 293 282 297 284 275 270 271 273 269 257 264 250 250 234 227 192 193 199 201 196 192 196 195 196 177 173 175 173 163 158 161 162 164 162 164 155 160
201 200 213 240 257 290 298 304 286 286 286 274 256 274 271 263 258 244 245 217 207 185 189 192 207 193 189 189 186 199 175 177 181 173 153 153 159 163 158 160 156 162 161
198 198 213 214 254 286 302 344 341 339 338 264 301 275 276 263 239 240 238 207 193 194 192 188 185 187 185 184 160 157 160 160 181 171 154 147 154 153 154 148 154 155 163
197 208 199 219 230 285 310 334 328 320 296 288 324 336 299 277 214 224 208 181 178 189 186 183 172 174 176 165 164 138 131 92 135 151 144 146 146 152 153 163 159 159 162
201 191 201 186 222 284 306 323 344 348 330 306 334 349 18 197 183 193 184 174 171 170 175 168 152 162 144 160 151 142 126 151 145 143 137 139 144 149 158 157 155 150 168
196 190 173 180 224 199 350 4 355 356 348 321 21 14 45 133 178 188 180 170 173 171 161 145 138 141 133 151 127 121 102 113 143 133 127 134 137 143 146 152 152 163 163
191 173 174 183 194 176 41 16 10 11 0 357 19 39 87 140 130 179 171 176 180 193 169 151 152 157 150 167 138 118 105 103 87 106 114 116 120 137 147 147 153 160 165
175 168 173 197 185 219 247 17 5 349 356 16 64 71 66 67 118 161 171 185 181 175 177 163 147 147 146 128 134 134 122 114 126 112 122 119 124 133 146 153 156 161 162